Location: Poughquag
(41.6090°N, 73.6820°W)
Time: 02:02:27
(UTC-04:00)

Explorer 11/Cluster Stage 4 - Pass Details

Date: 06 June 2020
Orbit: 467 x 1259 km, 28.8° (Epoch: 06 July)

Event Time Altitude Azimuth Distance (km) Brightness Sun altitude
Rises 09:27:20 0° 252° (WSW) 3,626 9.6 43.3°
Reaches altitude 10° 09:31:41 10° 225° (SW) 2,860 9.3 44.1°
Maximum altitude 09:34:30 13° 202° (SSW) 2,765 9.4 44.6°
Drops below altitude 10° 09:37:27 10° 179° (S) 3,050 9.8 45.1°
Sets 09:42:29 0° 153° (SSE) 4,126 10.6 46.1°
